Regional Weather Roundup
Issued by NWS

Home | Current Version | Previous Version | Text Only | Print | Product List | Glossary Off
Versions: 1 2 3 4 5 6 7 8 9 10 11 12 13 14 15 16 17 18 19 20 21 22 23 24 25 26 27 28 29 30 31 32 33 34 35 36 37 38 39 40 41 42 43 44 45 46 47 48 49 50

000
ASUS43 KDMX 241808
RWRIA

WEATHER ROUNDUP FOR IOWA
NATIONAL WEATHER SERVICE DES MOINES IA
100 PM CDT SUN JUL 24 2016

NOTE: "FAIR" INDICATES FEW OR NO CLOUDS BELOW 12,000 FEET WITH NO
SIGNIFICANT WEATHER AND/OR OBSTRUCTIONS TO VISIBILITY.

* - THESE STATIONS ARE NOT NWS STATIONS...THUS NOT UNDER NWS
QUALITY CONTROL.  THEY ALSO DO NOT REPORT WEATHER SUCH
AS PRECIPITATION OR FOG.

IAZ001>003-012>014-020>022-031>034-043>046-241900-
   NORTHWEST IOWA

CITY           SKY/WX    TMP DP  RH WIND       PRES   REMARKS
CARROLL *      MOSUNNY   84  66  54 N8        29.98S HX  86
CHEROKEE *     CLOUDY    81  61  49 N9        29.99S HX  82
LE MARS *      CLOUDY    84  61  45 NW7       30.01S HX  84
SHELDON *      RAIN      72  68  88 N5G12     29.99S
SIOUX CITY     CLOUDY    87  59  38 N7        29.99F HX  86
6HR MIN TEMP:  72; 6HR MAX TEMP:  88;

SPENCER        SUNNY     83  62  49 NW10      29.99S HX  84
6HR MIN TEMP:  69; 6HR MAX TEMP:  83;

STORM LAKE *   PTSUNNY   81  64  57 VRB5      30.00F HX  82
$$

IAZ055>058-069>071-079>083-090>094-241900-
   SOUTHWEST IOWA

CITY           SKY/WX    TMP DP  RH WIND       PRES   REMARKS
ATLANTIC *     CLOUDY    84  66  54 N14       29.97F HX  86
CLARINDA *       N/A     84  72  65 MISG      29.97S HX  89
COUNCIL BLFS * CLOUDY    84  68  58 N9        29.99S HX  87
CRESTON *      MOSUNNY   84  70  61 N15G21    29.99R HX  88
HARLAN  *      MOSUNNY   81  66  61 N9        30.02S HX  83
LAMONI         PTSUNNY   88  80  77 N9        29.92S HX 104
6HR MIN TEMP:  77; 6HR MAX TEMP:  90;

RED OAK *      MOSUNNY   86  64  48 NE15      29.97S HX  87
SHENANDOAH *   CLOUDY    84  68  58 N14G21    29.97R HX  87
$$

IAZ047>049-059>061-072>074-084-241900-
   CENTRAL IOWA

CITY           SKY/WX    TMP DP  RH WIND       PRES   REMARKS
AMES           MOSUNNY   86  67  52 N13       29.94R HX  89
6HR MIN TEMP:  77; 6HR MAX TEMP:  86;

ANKENY *         N/A    N/A N/A N/A MISG        N/A
BOONE *        MOSUNNY   84  66  54 N12       29.95F HX  86
CHARITON *       N/A    N/A N/A N/A MISG        N/A
DES MOINES     MOSUNNY   87  68  52 N9        29.93R HX  90
6HR MIN TEMP:  80; 6HR MAX TEMP:  89;

GRINNELL*      CLOUDY    84  76  76 NW8       29.93R HX  93
KNOXVILLE *    CLOUDY    86  77  74 N13       29.91S HX  97
MARSHALLTOWN   SUNNY     86  72  62 N15G23    29.92R HX  92
6HR MIN TEMP:  77; 6HR MAX TEMP:  86;

NEWTON *       MOSUNNY   86  77  74 NW9G16    29.92R HX  97
PERRY *          N/A     84  70  63 N10       29.96F HX  88
$$

IAZ004>006-015-016-023>025-035-036-241900-
   NORTH CENTRAL IOWA

CITY           SKY/WX    TMP DP  RH WIND       PRES   REMARKS
ALGONA *       CLOUDY    82  63  51 NW9G16    29.97R HX  83
ESTHERVILLE    MOSUNNY   79  65  62 NW10      29.98S HX  81
6HR MIN TEMP:  70; 6HR MAX TEMP:  79;

FORT DODGE *   MOSUNNY   82  66  57 N8        29.98S HX  85
MASON CITY     SUNNY     83  62  49 NW17      29.95S HX  84
6HR MIN TEMP:  75; 6HR MAX TEMP:  83;

FOREST CITY *    N/A     81  63  54 NW14      29.96R HX  82
IOWA FALLS *     N/A     84  67  56 N9        29.95S HX  87
$$

IAZ007>011-017>019-026>030-037>042-050>054-066-241900-
   NORTHEAST IOWA

CITY           SKY/WX    TMP DP  RH WIND       PRES   REMARKS
CEDAR RAPIDS   CLOUDY    85  81  88 NW12      29.89R HX 100
6HR MIN TEMP:  79; 6HR MAX TEMP:  88;

CHARLES CITY * SUNNY     82  66  57 NW14G22   29.93R HX  85
CLINTON *      CLOUDY    88  80  77 W10       29.87S HX 104
DECORAH *      SUNNY     84  70  61 NW15G21   29.90R HX  88
DUBUQUE        CLOUDY    86  79  79 W9        29.88R HX  99
6HR MIN TEMP:  76; 6HR MAX TEMP:  87;

MONTICELLO *   CLOUDY    84  79  84 NW13      29.88R HX  96
OELWEIN *      MOSUNNY   84  75  74 NW10G20   29.91R HX  92
WATERLOO       SUNNY     86  70  58 NW14      29.89R HX  90
6HR MIN TEMP:  78; 6HR MAX TEMP:  86;

$$

IAZ064-065-067-068-078-241900-
   EAST CENTRAL IOWA

CITY           SKY/WX    TMP DP  RH WIND       PRES   REMARKS
DAVENPORT      CLOUDY    89  78  70 W12G21    29.88S HX 103
6HR MIN TEMP:  79; 6HR MAX TEMP:  89;

IOWA CITY      PTSUNNY   89  78  70 W8        29.88S HX 103
6HR MIN TEMP:  80; 6HR MAX TEMP:  90;

MT. PLEASANT * CLOUDY    89  77  68 W6        29.90R HX 101
MUSCATINE *    MOSUNNY   88  77  70 W8        29.88R HX 100
QUAD CITIES    CLOUDY    92  77  61 SW12      29.86S HX 105
6HR MIN TEMP:  81; 6HR MAX TEMP:  92;

$$

IAZ062-063-075>077-085>089-095>099-241900-
   SOUTHEAST IOWA

CITY           SKY/WX    TMP DP  RH WIND       PRES   REMARKS
BURLINGTON     CLOUDY    89  80  74 W8        29.88F HX 106
6HR MIN TEMP:  78; 6HR MAX TEMP:  90;

FAIRFIELD *    MOSUNNY   86  77  74 W6        29.89S HX  97
KEOKUK *       MOSUNNY   93  77  59 W8        29.89R HX 107
OSKALOOSA *      N/A     87  79  77 NW10      29.90S HX 101
CENTERVILLE *    N/A     84  77  79 CALM      29.92F HX  94
OTTUMWA        MOSUNNY   90  78  68 NW12      29.88F HX 104
6HR MIN TEMP:  79; 6HR MAX TEMP:  90;

WASHINGTON *   CLOUDY    86  81  84 SW6       29.89F HX 102
$$

ABBREVIATIONS USED IN REMARKS
   TC - TEMPERATURES IN CELSIUS
  WCI - WIND CHILL INDEX
   HX - HEAT INDEX
  VSB - VISIBILITY
$$




USA.gov is the U.S. government's official web portal to all federal, state and local government web resources and services.